When you browse on this site, cookies collect data to enhance your experience and personalize the content and advertising you see.
Visit our Privacy Policy to learn more. By continuing to use the site, you agree to this use of cookies and data.
  • En España
  • Lista de países
  • Para 7 días
  • Temperatura del agua
  • Mapa Satelital
  • El tiempo en el mapa
  • Informadores
  • user-avatar
    Iniciar sesión

    Tiempo cada hora San Cristóbal

    Hoy, 19 Febrero, Martes

    Tiempo Temperatura Precipitaciones Viento Presión Humedad
    00:00 +20°C° 0.4 mm 0 mps 673 mmHg 71%
    01:00 +19°C° 0.4 mm 0 mps 672 mmHg 72%
    02:00 +19°C° 0.3 mm 0 mps 672 mmHg 73%
    03:00 +19°C° 0.3 mm 0 mps 672 mmHg 74%
    04:00 +21°C° 0.3 mm 1 mps 672 mmHg 75%
    05:00 +21°C° 0.2 mm 1 mps 672 mmHg 73%
    06:00 +22°C° 0.2 mm 1 mps 673 mmHg 71%
    07:00 +22°C° 0.2 mm 1 mps 673 mmHg 69%
    08:00 +24°C° 0.2 mm 1 mps 674 mmHg 63%
    09:00 +25°C° 0.2 mm 2 mps 674 mmHg 58%
    10:00 +27°C° 0.2 mm 2 mps 675 mmHg 52%
    11:00 +28°C° 0.2 mm 2 mps 675 mmHg 49%
    12:00 +29°C° 0.2 mm 2 mps 674 mmHg 46%
    13:00 +30°C° 0.2 mm 2 mps 674 mmHg 43%
    14:00 +30°C° 0.3 mm 2 mps 673 mmHg 44%
    15:00 +29°C° 0.3 mm 1 mps 672 mmHg 45%
    16:00 +29°C° 0.3 mm 1 mps 672 mmHg 46%
    17:00 +27°C° 0.5 mm 1 mps 672 mmHg 53%
    18:00 +25°C° 0.5 mm 1 mps 671 mmHg 60%
    19:00 +21°C° 0.5 mm 0 mps 671 mmHg 68%
    20:00 +21°C° 0.3 mm 0 mps 672 mmHg 69%
    21:00 +20°C° 0.3 mm 0 mps 672 mmHg 70%
    22:00 +20°C° 0.3 mm 0 mps 673 mmHg 71%
    23:00 +20°C° 0.5 mm 0 mps 672 mmHg 71%

    Mañana, 20 Febrero, Miércoles

    Tiempo Temperatura Precipitaciones Viento Presión Humedad
    00:00 +20°C° 0.5 mm 0 mps 672 mmHg 72%
    01:00 +20°C° 0.5 mm 0 mps 672 mmHg 72%
    02:00 +19°C° 1.1 mm 0 mps 672 mmHg 76%
    03:00 +19°C° 1.1 mm 0 mps 671 mmHg 79%
    04:00 +20°C° 1.1 mm 1 mps 671 mmHg 82%
    05:00 +20°C° 1.1 mm 1 mps 671 mmHg 82%
    06:00 +20°C° 1.1 mm 1 mps 672 mmHg 82%
    07:00 +20°C° 1.1 mm 1 mps 672 mmHg 82%
    08:00 +21°C° 0.9 mm 1 mps 673 mmHg 79%
    09:00 +22°C° 0.9 mm 1 mps 673 mmHg 76%
    10:00 +23°C° 0.9 mm 1 mps 674 mmHg 73%
    11:00 +24°C° 0.7 mm 1 mps 673 mmHg 69%
    12:00 +25°C° 0.7 mm 1 mps 672 mmHg 66%
    13:00 +26°C° 0.7 mm 1 mps 672 mmHg 62%
    14:00 +27°C° 0.3 mm 1 mps 671 mmHg 57%
    15:00 +28°C° 0.3 mm 1 mps 671 mmHg 52%
    16:00 +26°C° 0.3 mm 0 mps 670 mmHg 47%
    17:00 +25°C° 0.2 mm 0 mps 670 mmHg 52%
    18:00 +23°C° 0.2 mm 0 mps 670 mmHg 58%
    19:00 +23°C° 0.2 mm 1 mps 670 mmHg 64%
    20:00 +22°C° 0.3 mm 1 mps 671 mmHg 66%
    21:00 +22°C° 0.3 mm 1 mps 671 mmHg 69%
    22:00 +21°C° 0.3 mm 1 mps 672 mmHg 71%
    23:00 +21°C° 0.4 mm 1 mps 672 mmHg 72%

    Pasado mañana, 21 Febrero, Jueves

    Tiempo Temperatura Precipitaciones Viento Presión Humedad
    00:00 +21°C° 0.4 mm 1 mps 671 mmHg 72%
    01:00 +21°C° 0.4 mm 1 mps 671 mmHg 73%
    02:00 +21°C° 0.4 mm 1 mps 671 mmHg 72%
    03:00 +19°C° 0.4 mm 0 mps 671 mmHg 72%
    04:00 +19°C° 0.4 mm 0 mps 671 mmHg 72%
    05:00 +19°C° 0.3 mm 0 mps 671 mmHg 70%
    06:00 +22°C° 0.3 mm 1 mps 672 mmHg 68%
    07:00 +22°C° 0.3 mm 1 mps 673 mmHg 66%
    08:00 +24°C° 0.2 mm 1 mps 674 mmHg 60%
    09:00 +26°C° 0.2 mm 1 mps 674 mmHg 53%
    10:00 +28°C° 0.2 mm 2 mps 675 mmHg 46%
    11:00 +29°C° 0.1 mm 2 mps 675 mmHg 43%
    12:00 +30°C° 0.1 mm 2 mps 674 mmHg 41%
    13:00 +31°C° 0.1 mm 1 mps 673 mmHg 39%
    14:00 +31°C° 0.1 mm 1 mps 672 mmHg 39%
    15:00 +31°C° 0.1 mm 1 mps 672 mmHg 39%
    16:00 +31°C° 0.1 mm 1 mps 671 mmHg 39%
    17:00 +29°C° 0.1 mm 1 mps 671 mmHg 46%
    18:00 +26°C° 0.1 mm 1 mps 671 mmHg 53%
    19:00 +22°C° 0.1 mm 0 mps 671 mmHg 59%
    20:00 +21°C° 0 mm 0 mps 671 mmHg 61%
    21:00 +21°C° 0 mm 0 mps 672 mmHg 64%
    22:00 +20°C° 0 mm 0 mps 672 mmHg 66%
    23:00 +22°C° 0 mm 1 mps 672 mmHg 66%

    22 Febrero, Viernes

    Tiempo Temperatura Precipitaciones Viento Presión Humedad
    00:00 +22°C° 0 mm 1 mps 672 mmHg 66%
    01:00 +22°C° 0 mm 1 mps 671 mmHg 66%
    02:00 +21°C° 0 mm 1 mps 671 mmHg 65%
    03:00 +21°C° 0 mm 1 mps 671 mmHg 65%
    04:00 +21°C° 0 mm 1 mps 671 mmHg 64%
    05:00 +21°C° 0 mm 1 mps 672 mmHg 63%
    06:00 +22°C° 0 mm 1 mps 672 mmHg 62%
    07:00 +22°C° 0 mm 1 mps 673 mmHg 61%
    08:00 +25°C° 0 mm 1 mps 674 mmHg 55%
    09:00 +27°C° 0 mm 2 mps 674 mmHg 50%
    10:00 +29°C° 0 mm 2 mps 675 mmHg 44%
    11:00 +30°C° 0 mm 2 mps 674 mmHg 42%
    12:00 +31°C° 0 mm 2 mps 674 mmHg 39%
    13:00 +32°C° 0 mm 2 mps 673 mmHg 36%
    14:00 +32°C° 0 mm 1 mps 673 mmHg 38%
    15:00 +31°C° 0 mm 1 mps 672 mmHg 39%
    16:00 +30°C° 0 mm 1 mps 671 mmHg 41%
    17:00 +28°C° 0 mm 1 mps 671 mmHg 48%
    18:00 +26°C° 0 mm 1 mps 672 mmHg 55%
    19:00 +22°C° 0 mm 0 mps 672 mmHg 62%
    20:00 +21°C° 0.1 mm 0 mps 672 mmHg 64%
    21:00 +23°C° 0.1 mm 1 mps 672 mmHg 67%
    22:00 +22°C° 0.1 mm 1 mps 673 mmHg 70%
    23:00 +22°C° 0 mm 1 mps 672 mmHg 70%

    23 Febrero, Sábado

    Tiempo Temperatura Precipitaciones Viento Presión Humedad
    00:00 +22°C° 0 mm 1 mps 672 mmHg 71%
    01:00 +22°C° 0 mm 1 mps 672 mmHg 72%
    02:00 +21°C° 0 mm 1 mps 672 mmHg 71%
    03:00 +21°C° 0 mm 1 mps 671 mmHg 71%
    04:00 +21°C° 0 mm 1 mps 671 mmHg 70%
    05:00 +21°C° 0 mm 1 mps 672 mmHg 68%
    06:00 +22°C° 0 mm 1 mps 673 mmHg 65%
    07:00 +22°C° 0 mm 1 mps 673 mmHg 62%
    08:00 +24°C° 0 mm 1 mps 674 mmHg 57%
    09:00 +25°C° 0 mm 1 mps 674 mmHg 51%
    10:00 +27°C° 0 mm 2 mps 675 mmHg 46%
    11:00 +28°C° 0 mm 2 mps 674 mmHg 43%
    12:00 +29°C° 0 mm 2 mps 674 mmHg 40%
    13:00 +30°C° 0 mm 1 mps 673 mmHg 37%
    14:00 +30°C° 0 mm 1 mps 672 mmHg 38%
    15:00 +30°C° 0 mm 1 mps 672 mmHg 38%
    16:00 +29°C° 0 mm 1 mps 671 mmHg 39%
    17:00 +27°C° 0 mm 1 mps 671 mmHg 46%
    18:00 +25°C° 0 mm 1 mps 671 mmHg 54%
    19:00 +21°C° 0 mm 0 mps 671 mmHg 61%
    20:00 +22°C° 0 mm 1 mps 672 mmHg 62%
    21:00 +22°C° 0 mm 1 mps 672 mmHg 64%
    22:00 +22°C° 0 mm 1 mps 672 mmHg 65%
    23:00 +21°C° 0 mm 1 mps 672 mmHg 66%

    24 Febrero, Domingo

    Tiempo Temperatura Precipitaciones Viento Presión Humedad
    00:00 +21°C° 0 mm 1 mps 672 mmHg 66%
    01:00 +20°C° 0 mm 1 mps 671 mmHg 67%
    02:00 +20°C° 0 mm 1 mps 671 mmHg 65%
    03:00 +20°C° 0 mm 1 mps 671 mmHg 62%
    04:00 +19°C° 0 mm 1 mps 671 mmHg 60%
    05:00 +20°C° 0 mm 1 mps 672 mmHg 56%
    06:00 +20°C° 0 mm 1 mps 672 mmHg 52%
    07:00 +21°C° 0 mm 1 mps 673 mmHg 47%
    08:00 +23°C° 0 mm 1 mps 673 mmHg 43%
    09:00 +26°C° 0 mm 2 mps 674 mmHg 39%
    10:00 +28°C° 0 mm 2 mps 675 mmHg 35%
    11:00 +30°C° 0 mm 2 mps 674 mmHg 31%
    12:00 +31°C° 0 mm 2 mps 674 mmHg 26%
    13:00 +32°C° 0 mm 2 mps 673 mmHg 22%
    14:00 +32°C° 0 mm 2 mps 672 mmHg 22%
    15:00 +31°C° 0 mm 2 mps 671 mmHg 22%
    16:00 +31°C° 0 mm 1 mps 671 mmHg 23%
    17:00 +28°C° 0 mm 1 mps 671 mmHg 29%
    18:00 +25°C° 0 mm 1 mps 670 mmHg 36%
    19:00 +22°C° 0 mm 1 mps 670 mmHg 43%
    20:00 +22°C° 0 mm 1 mps 671 mmHg 44%
    21:00 +21°C° 0 mm 1 mps 671 mmHg 44%
    22:00 +21°C° 0 mm 1 mps 671 mmHg 45%
    23:00 +20°C° 0 mm 1 mps 671 mmHg 46%
    Mostrar más